G0TRT-13 Weather Reports


time (UTC)temp
C
wind
direction
speed
KPH
gust
KPH
rain 1hr
cm
rain 24hr
cm
rain mn
cm
humidity
%
barometer
mb
20260508005506 8 93 0.0 1.6 0.00 0.00 0.00 81 1015.2
20260508005006 9 93 0.0 1.6 0.00 0.00 0.00 81 1015.1
20260508004509 9 93 0.0 3.2 0.00 0.00 0.00 81 1015.1
20260508004009 9 84 0.0 3.2 0.00 0.00 0.00 81 1015.1
20260508003508 9 96 0.0 3.2 0.00 0.00 0.00 81 1015.0
20260508003008 9 198 0.0 1.6 0.00 0.00 0.00 81 1015.2
20260508002506 9 95 0.0 1.6 0.00 0.00 0.00 81 1015.1
20260508002007 9 94 0.0 1.6 0.00 0.00 0.00 81 1015.0
20260508001507 9 122 0.0 3.2 0.00 0.00 0.00 80 1015.1
20260508000506 9 95 0.0 3.2 0.00 0.00 0.00 79 1015.3
20260508000007 9 94 0.0 3.2 0.00 0.00 0.00 79 1015.2
20260507235505 9 96 0.0 3.2 0.00 0.00 0.00 79 1015.2
20260507235006 9 198 0.0 3.2 0.00 0.00 0.00 78 1015.1
20260507234504 9 95 0.0 1.6 0.00 0.00 0.00 78 1015.3
20260507234009 9 100 0.0 3.2 0.00 0.00 0.00 78 1015.2
20260507233504 9 217 0.0 3.2 0.00 0.00 0.00 78 1015.2
20260507233004 9 94 0.0 3.2 0.00 0.00 0.00 77 1015.2
20260507232502 9 94 0.0 3.2 0.00 0.00 0.00 77 1015.3
20260507232004 9 108 0.0 3.2 0.00 0.00 0.00 77 1015.3
20260507231502 9 65 0.0 3.2 0.00 0.00 0.00 77 1015.4
20260507231004 9 96 0.0 1.6 0.00 0.00 0.00 77 1015.4
20260507230514 9 96 0.0 1.6 0.00 0.00 0.00 76 1015.3
20260507230006 9 94 0.0 1.6 0.00 0.00 0.00 76 1015.3
20260507225503 9 139 0.0 1.6 0.00 0.00 0.00 75 1015.3
20260507225004 9 176 0.0 3.2 0.00 0.00 0.00 75 1015.4
20260507224502 9 140 0.0 3.2 0.00 0.00 0.00 75 1015.5
20260507224005 9 97 0.0 1.6 0.00 0.00 0.00 75 1015.5
20260507223503 9 115 0.0 1.6 0.00 0.00 0.00 74 1015.5
20260507223004 9 95 0.0 1.6 0.00 0.00 0.00 74 1015.5
20260507222502 9 92 0.0 1.6 0.00 0.00 0.00 74 1015.5
20260507222004 9 91 0.0 1.6 0.00 0.00 0.00 74 1015.5
20260507221502 9 137 0.0 1.6 0.00 0.00 0.00 74 1015.5
20260507221004 9 193 0.0 1.6 0.00 0.00 0.00 74 1015.5
20260507220502 9 200 0.0 1.6 0.00 0.00 0.00 74 1015.5
20260507220005 9 94 0.0 1.6 0.00 0.00 0.00 74 1015.8
20260507215502 9 94 0.0 1.6 0.00 0.00 0.00 73 1015.7
20260507215004 9 91 0.0 0.0 0.00 0.00 0.00 73 1015.7
20260507214502 9 185 0.0 0.0 0.00 0.00 0.00 73 1015.7
20260507214004 9 183 0.0 0.0 0.00 0.00 0.00 72 1015.7
20260507213502 9 183 0.0 0.0 0.00 0.00 0.00 72 1015.5
20260507213004 9 184 0.0 0.0 0.00 0.00 0.00 72 1015.7
20260507212458 9 184 0.0 0.0 0.00 0.00 0.00 72 1015.5
20260507211958 9 184 0.0 0.0 0.00 0.00 0.00 72 1015.7
20260507211458 9 183 0.0 0.0 0.00 0.00 0.00 72 1015.5
20260507210958 9 185 0.0 0.0 0.00 0.00 0.00 72 1015.4
20260507210458 10 185 0.0 0.0 0.00 0.00 0.00 72 1015.4
20260507205958 9 185 0.0 0.0 0.00 0.00 0.00 72 1015.2
20260507205458 9 185 0.0 0.0 0.00 0.00 0.00 72 1015.2
20260507204958 9 185 0.0 0.0 0.00 0.00 0.00 72 1015.1
20260507204459 9 185 0.0 0.0 0.00 0.00 0.00 72 1015.2
20260507203953 9 185 0.0 0.0 0.00 0.00 0.00 71 1015.1
20260507203455 9 185 0.0 0.0 0.00 0.00 0.00 71 1015.2
20260507202951 9 185 0.0 0.0 0.00 0.00 0.00 71 1015.1
20260507202451 9 185 0.0 0.0 0.00 0.00 0.00 72 1015.1
20260507201948 9 185 0.0 0.0 0.00 0.00 0.00 72 1015.0
20260507201447 9 185 0.0 0.0 0.00 0.00 0.00 71 1015.0
20260507200944 10 185 0.0 0.0 0.00 0.00 0.00 71 1015.0
20260507200441 10 185 0.0 0.0 0.00 0.00 0.00 71 1015.0
20260507195939 10 185 0.0 0.0 0.00 0.00 0.00 71 1015.0
20260507195438 10 185 0.0 0.0 0.00 0.00 0.00 71 1014.9
20260507194936 10 185 0.0 0.0 0.00 0.00 0.00 71 1014.9
20260507194434 10 186 0.0 0.0 0.00 0.00 0.00 71 1014.8
20260507193932 10 186 0.0 0.0 0.00 0.00 0.00 71 1014.9
20260507193431 10 186 0.0 0.0 0.00 0.00 0.00 71 1014.8
20260507192931 10 186 0.0 0.0 0.00 0.00 0.00 70 1014.7
20260507192431 10 186 0.0 0.0 0.00 0.00 0.00 70 1014.4
20260507191931 10 186 0.0 0.0 0.00 0.00 0.00 70 1014.6
20260507191431 10 186 0.0 0.0 0.00 0.00 0.00 69 1014.6
20260507190931 10 186 0.0 0.0 0.00 0.00 0.00 69 1014.6
20260507190430 11 186 0.0 0.0 0.00 0.00 0.00 69 1014.6
20260507185927 11 186 0.0 0.0 0.00 0.00 0.00 69 1014.4
20260507185428 11 186 0.0 0.0 0.00 0.00 0.00 69 1014.5
20260507184927 11 186 0.0 0.0 0.00 0.00 0.00 68 1014.5
20260507184424 11 186 0.0 0.0 0.00 0.00 0.00 68 1014.5
20260507183922 11 186 0.0 0.0 0.00 0.00 0.00 68 1014.4
20260507183420 11 186 0.0 0.0 0.00 0.00 0.00 68 1014.4
20260507182917 11 186 0.0 0.0 0.00 0.00 0.00 68 1014.4
20260507182415 12 186 0.0 0.0 0.00 0.00 0.00 68 1014.4
20260507181914 12 186 0.0 0.0 0.00 0.00 0.00 67 1014.4
20260507181412 12 186 0.0 0.0 0.00 0.00 0.00 67 1014.4
20260507180910 12 186 0.0 0.0 0.00 0.00 0.00 67 1014.4
20260507180408 12 186 0.0 0.0 0.00 0.00 0.00 67 1014.3
20260507175906 12 186 0.0 0.0 0.00 0.00 0.00 67 1014.4
20260507175403 12 186 0.0 0.0 0.00 0.00 0.00 68 1014.3
20260507174906 12 186 0.0 0.0 0.00 0.00 0.00 68 1014.3
20260507174403 12 186 0.0 0.0 0.00 0.00 0.00 69 1014.3
20260507173903 12 186 0.0 0.0 0.00 0.00 0.00 70 1014.3
20260507173402 12 174 0.0 0.0 0.00 0.00 0.00 69 1014.3
20260507172903 12 174 0.0 0.0 0.00 0.00 0.00 70 1014.4
20260507172402 12 174 0.0 0.0 0.00 0.00 0.00 69 1014.3
20260507171902 12 174 0.0 0.0 0.00 0.00 0.00 69 1014.4
20260507171402 12 179 0.0 0.0 0.00 0.00 0.00 69 1014.4
20260507170858 12 179 0.0 0.0 0.00 0.00 0.00 69 1014.3
20260507170356 12 179 0.0 0.0 0.00 0.00 0.00 69 1014.3
20260507165855 12 179 0.0 0.0 0.00 0.00 0.00 70 1014.4
20260507165354 12 179 0.0 0.0 0.00 0.00 0.00 69 1014.3
20260507164852 12 179 0.0 0.0 0.00 0.00 0.00 69 1014.4
20260507164350 12 179 0.0 0.0 0.00 0.00 0.00 69 1014.4
20260507163848 12 179 0.0 0.0 0.00 0.00 0.00 69 1014.3
20260507163347 12 179 0.0 0.0 0.00 0.00 0.00 68 1014.3
20260507162847 12 178 0.0 0.0 0.00 0.00 0.00 68 1014.3
20260507162355 12 179 0.0 0.0 0.00 0.00 0.00 68 1014.3
20260507161844 12 179 0.0 0.0 0.00 0.00 0.00 68 1014.4
20260507161341 12 179 0.0 0.0 0.00 0.00 0.00 68 1014.5
20260507160840 13 179 0.0 0.0 0.00 0.00 0.00 67 1014.4
20260507160340 13 179 0.0 1.6 0.00 0.00 0.00 67 1014.4
20260507155838 13 97 0.0 3.2 0.00 0.00 0.00 67 1014.5
20260507155336 13 96 0.0 3.2 0.00 0.00 0.00 67 1014.5
20260507154833 13 95 0.0 1.6 0.00 0.00 0.00 66 1014.5
20260507154334 13 165 0.0 1.6 0.00 0.00 0.00 67 1014.4
20260507153833 13 140 0.0 1.6 0.00 0.00 0.00 66 1014.5
20260507153331 13 141 0.0 1.6 0.00 0.00 0.00 66 1014.5
20260507152831 13 209 0.0 1.6 0.00 0.00 0.00 66 1014.5
20260507152328 14 207 0.0 1.6 0.00 0.00 0.00 66 1014.5
20260507151821 14 203 0.0 1.6 0.00 0.00 0.00 67 1014.5
20260507151316 14 108 0.0 3.2 0.00 0.00 0.00 67 1014.6
20260507150810 13 92 0.0 3.2 0.00 0.00 0.00 66 1014.6
20260507150309 13 214 0.0 0.0 0.00 0.00 0.00 66 1014.7
20260507145808 13 214 0.0 0.0 0.00 0.00 0.00 67 1014.7
20260507145307 13 214 0.0 0.0 0.00 0.00 0.00 66 1014.7
20260507144807 13 214 0.0 0.0 0.00 0.00 0.00 65 1014.6
20260507144305 13 214 0.0 0.0 0.00 0.00 0.00 64 1014.7
20260507143803 13 214 0.0 0.0 0.00 0.00 0.00 64 1014.8
20260507143309 13 212 0.0 0.0 0.00 0.00 0.00 66 1014.8
20260507142803 13 212 0.0 1.6 0.00 0.00 0.00 63 1014.8
20260507142306 13 214 0.0 1.6 0.00 0.00 0.00 65 1014.9
20260507141802 13 210 0.0 0.0 0.00 0.00 0.00 64 1014.9
20260507141302 14 210 0.0 0.0 0.00 0.00 0.00 64 1014.9
20260507140802 14 210 0.0 0.0 0.00 0.00 0.00 65 1014.9
20260507140303 14 210 0.0 0.0 0.00 0.00 0.00 64 1015.0
20260507135802 14 205 0.0 0.0 0.00 0.00 0.00 65 1014.9
20260507135306 14 207 0.0 0.0 0.00 0.00 0.00 63 1015.0
20260507134802 14 215 0.0 0.0 0.00 0.00 0.00 63 1015.0
20260507134303 14 218 0.0 0.0 0.00 0.00 0.00 64 1015.0
20260507133802 15 212 0.0 0.0 0.00 0.00 0.00 65 1015.0
20260507133303 15 219 0.0 3.2 0.00 0.00 0.00 65 1014.9
20260507132802 15 219 1.6 3.2 0.00 0.00 0.00 64 1015.0
20260507132307 15 219 1.6 6.4 0.00 0.00 0.00 63 1015.0
20260507131802 15 214 0.0 6.4 0.00 0.00 0.00 63 1015.1
20260507131303 16 209 0.0 4.8 0.00 0.00 0.00 62 1015.0
20260507130803 16 220 0.0 3.2 0.00 0.00 0.00 62 1015.0
20260507130303 16 218 0.0 3.2 0.00 0.00 0.00 64 1015.1
20260507125803 16 217 0.0 3.2 0.00 0.00 0.00 63 1015.1
20260507125306 16 197 0.0 3.2 0.00 0.00 0.00 63 1015.1
20260507124803 15 132 0.0 1.6 0.00 0.00 0.00 65 1015.1
20260507124302 15 200 0.0 4.8 0.00 0.00 0.00 63 1015.1
20260507123802 15 200 0.0 4.8 0.00 0.00 0.00 62 1015.1
20260507123302 15 203 0.0 1.6 0.00 0.00 0.00 63 1015.1
20260507122803 15 156 0.0 1.6 0.00 0.00 0.00 62 1015.1
20260507122306 15 219 0.0 0.0 0.00 0.00 0.00 63 1015.2
20260507121804 15 208 0.0 1.6 0.00 0.00 0.00 63 1015.2
20260507121302 15 207 0.0 1.6 0.00 0.00 0.00 63 1015.2
20260507120802 15 208 0.0 0.0 0.00 0.00 0.00 61 1015.2
20260507120302 15 131 0.0 0.0 0.00 0.00 0.00 61 1015.3
20260507115803 15 127 0.0 0.0 0.00 0.00 0.00 60 1015.2
20260507115306 15 94 0.0 0.0 0.00 0.00 0.00 60 1015.2
20260507114802 15 211 0.0 0.0 0.00 0.00 0.00 60 1015.3
20260507114302 15 189 0.0 0.0 0.00 0.00 0.00 58 1015.2
20260507113803 15 184 0.0 0.0 0.00 0.00 0.00 58 1015.2
20260507113302 15 210 0.0 0.0 0.00 0.00 0.00 59 1015.2
20260507112803 16 213 0.0 3.2 0.00 0.00 0.00 58 1015.1
20260507112306 16 223 0.0 3.2 0.00 0.00 0.00 57 1015.2
20260507111803 16 191 0.0 3.2 0.00 0.00 0.00 54 1015.2
20260507111303 16 229 0.0 3.2 0.00 0.00 0.00 56 1015.2
20260507110803 16 107 0.0 4.8 0.00 0.00 0.00 58 1015.2
20260507110319 16 215 0.0 4.8 0.00 0.00 0.00 62 1015.2
20260507105804 15 102 0.0 1.6 0.00 0.00 0.00 65 1015.4
20260507105306 14 103 0.0 3.2 0.00 0.00 0.00 64 1015.3
20260507104802 14 104 0.0 3.2 0.00 0.00 0.00 65 1015.4
20260507104259 15 103 0.0 3.2 0.00 0.00 0.00 65 1015.3
20260507103758 15 124 0.0 3.2 0.00 0.00 0.00 64 1015.4
20260507103255 15 207 0.0 1.6 0.00 0.00 0.00 63 1015.4
20260507102754 16 205 0.0 3.2 0.00 0.00 0.00 63 1015.5
20260507102251 16 205 0.0 3.2 0.00 0.00 0.00 65 1015.5
20260507101750 16 210 0.0 3.2 0.00 0.00 0.00 66 1015.7
20260507101247 16 106 0.0 3.2 0.00 0.00 0.00 67 1015.7
20260507100746 16 105 0.0 1.6 0.00 0.00 0.00 66 1015.8
20260507100243 15 111 0.0 1.6 0.00 0.00 0.00 68 1015.7
20260507095742 15 205 0.0 1.6 0.00 0.00 0.00 70 1015.7
20260507095239 15 206 0.0 1.6 0.00 0.00 0.00 67 1015.7
20260507094736 15 195 0.0 1.6 0.00 0.00 0.00 68 1015.5
20260507094235 15 131 0.0 1.6 0.00 0.00 0.00 67 1015.4
20260507093732 15 182 0.0 3.2 0.00 0.00 0.00 67 1015.5
20260507093229 15 190 0.0 4.8 0.00 0.00 0.00 67 1015.7
20260507092727 15 109 0.0 4.8 0.00 0.00 0.00 68 1015.5
20260507092225 15 124 0.0 3.2 0.00 0.00 0.00 69 1015.7
20260507091725 15 189 0.0 0.0 0.00 0.00 0.00 69 1015.9
20260507091223 15 164 0.0 0.0 0.00 0.00 0.00 70 1015.9
20260507090721 14 165 0.0 0.0 0.00 0.00 0.00 72 1015.7
20260507090223 14 186 0.0 1.6 0.00 0.00 0.00 72 1015.8
20260507085720 13 188 0.0 1.6 0.00 0.00 0.00 72 1015.8
20260507085218 13 103 0.0 1.6 0.00 0.00 0.00 72 1015.8
20260507084717 13 187 0.0 3.2 0.00 0.00 0.00 74 1015.8
20260507084217 13 188 0.0 3.2 0.00 0.00 0.00 73 1015.8
20260507083717 13 161 0.0 1.6 0.00 0.00 0.00 76 1015.7
20260507083214 12 160 0.0 1.6 0.00 0.00 0.00 77 1015.8
20260507082712 12 165 0.0 4.8 0.00 0.00 0.00 77 1015.8
20260507082211 11 146 0.0 4.8 0.00 0.00 0.00 77 1015.8
20260507081708 11 164 0.0 1.6 0.00 0.00 0.00 80 1015.8
20260507081207 10 172 0.0 1.6 0.00 0.00 0.00 80 1015.8
20260507080703 10 129 0.0 1.6 0.00 0.00 0.00 79 1015.8
20260507080202 10 129 0.0 1.6 0.00 0.00 0.00 81 1015.9
20260507075703 10 120 0.0 1.6 0.00 0.00 0.00 82 1015.8
20260507075202 10 120 0.0 1.6 0.00 0.00 0.00 83 1015.8
20260507074702 9 118 0.0 1.6 0.00 0.00 0.00 83 1015.7
20260507074205 9 142 0.0 1.6 0.00 0.00 0.00 84 1015.7
20260507073702 8 118 0.0 3.2 0.00 0.00 0.00 84 1015.5
20260507073205 8 110 0.0 3.2 0.00 0.00 0.00 84 1015.5
20260507072703 8 158 0.0 1.6 0.00 0.00 0.00 85 1015.7
20260507072202 8 159 0.0 1.6 0.00 0.00 0.00 86 1015.7
20260507071704 8 128 0.0 1.6 0.00 0.00 0.00 86 1015.7
20260507071202 7 136 0.0 1.6 0.00 0.00 0.00 86 1015.7
20260507070703 7 136 0.0 1.6 0.00 0.00 0.00 87 1015.7
20260507070203 7 136 0.0 1.6 0.00 0.00 0.00 87 1015.5
20260507065702 7 136 0.0 1.6 0.00 0.00 0.00 87 1015.5
20260507065204 7 136 0.0 1.6 0.00 0.00 0.00 87 1015.4
20260507064703 7 137 0.0 1.6 0.00 0.00 0.00 87 1015.5
20260507064203 7 137 0.0 1.6 0.00 0.00 0.00 87 1015.5
20260507063706 7 161 0.0 0.0 0.00 0.00 0.00 88 1015.5
20260507063202 6 161 0.0 0.0 0.00 0.00 0.00 88 1015.5
20260507062656 6 161 0.0 0.0 0.00 0.00 0.00 87 1015.5
20260507062150 6 162 0.0 0.0 0.00 0.00 0.00 88 1015.5
20260507061645 6 162 0.0 1.6 0.00 0.00 0.00 87 1015.7
20260507061138 6 127 0.0 1.6 0.00 0.00 0.00 88 1015.4
20260507060632 6 127 0.0 0.0 0.00 0.00 0.00 88 1015.2
20260507060131 6 127 0.0 0.0 0.00 0.00 0.00 88 1015.2
20260507055631 6 127 0.0 0.0 0.00 0.00 0.00 88 1015.1
20260507055128 6 127 0.0 1.6 0.00 0.00 0.00 88 1015.1
20260507054626 6 127 0.0 1.6 0.00 0.00 0.00 88 1015.0
20260507054127 6 125 0.0 1.6 0.00 0.00 0.00 88 1015.1
20260507053626 6 125 0.0 1.6 0.00 0.00 0.00 88 1015.0
20260507053120 6 167 0.0 1.6 0.00 0.00 0.00 87 1015.0
20260507052620 6 142 0.0 1.6 0.00 0.00 0.00 87 1015.0
20260507052121 6 155 0.0 1.6 0.00 0.00 0.00 87 1015.0
20260507051618 6 115 0.0 1.6 0.00 0.00 0.00 87 1015.0
20260507051116 6 115 0.0 1.6 0.00 0.00 0.00 87 1015.1
20260507050627 6 115 0.0 0.0 0.00 0.00 0.00 87 1015.1
20260507050113 6 115 0.0 0.0 0.00 0.00 0.00 87 1015.2
20260507045613 6 115 0.0 0.0 0.00 0.00 0.00 87 1015.1
20260507045113 6 115 0.0 0.0 0.00 0.00 0.00 87 1015.0
20260507044610 6 115 0.0 0.0 0.00 0.00 0.00 87 1014.9
20260507044108 6 115 0.0 0.0 0.00 0.00 0.00 87 1015.0
20260507043606 6 115 0.0 1.6 0.00 0.00 0.00 87 1015.0
20260507043104 6 115 0.0 1.6 0.00 0.00 0.00 87 1015.0
20260507042602 6 115 0.0 1.6 0.00 0.00 0.00 87 1014.9
20260507042103 6 115 0.0 3.2 0.00 0.00 0.00 87 1014.8
20260507041559 6 115 0.0 3.2 0.00 0.00 0.00 87 1014.8
20260507041054 6 172 0.0 0.0 0.00 0.00 0.00 87 1014.8
20260507040554 6 171 0.0 0.0 0.00 0.00 0.00 86 1014.9
20260507040054 6 171 0.0 0.0 0.00 0.00 0.00 86 1014.9
20260507035556 6 172 0.0 0.0 0.00 0.00 0.00 86 1014.9
20260507035055 6 172 0.0 0.0 0.00 0.00 0.00 86 1014.9
20260507034554 6 172 0.0 0.0 0.00 0.00 0.00 86 1014.9
20260507034055 6 171 0.0 0.0 0.00 0.00 0.00 86 1015.0
20260507033554 6 171 0.0 0.0 0.00 0.00 0.00 86 1014.9
20260507033055 6 171 0.0 0.0 0.00 0.00 0.00 86 1014.9
20260507032554 6 171 0.0 0.0 0.00 0.00 0.00 86 1015.0
20260507032055 6 171 0.0 0.0 0.00 0.00 0.00 86 1014.8
20260507031552 6 174 0.0 0.0 0.00 0.00 0.00 86 1014.9
20260507031052 6 176 0.0 0.0 0.00 0.00 0.00 86 1014.9
20260507030552 6 176 0.0 0.0 0.00 0.00 0.00 86 1014.9
20260507030053 6 177 0.0 0.0 0.00 0.00 0.00 86 1014.9
20260507025552 6 177 0.0 0.0 0.00 0.00 0.00 86 1014.8
20260507025053 6 176 0.0 0.0 0.00 0.00 0.00 86 1014.9
20260507024553 6 177 0.0 0.0 0.00 0.00 0.00 86 1014.7
20260507024052 6 176 0.0 0.0 0.00 0.00 0.00 86 1014.7
20260507023552 6 176 0.0 0.0 0.00 0.00 0.00 86 1014.8
20260507023052 6 176 0.0 0.0 0.00 0.00 0.00 86 1014.6
20260507022552 6 176 0.0 0.0 0.00 0.00 0.00 86 1014.7
20260507022106 6 176 0.0 0.0 0.00 0.00 0.00 86 1014.6
20260507021553 6 176 0.0 0.0 0.00 0.00 0.00 85 1014.8
20260507021052 6 176 0.0 0.0 0.00 0.00 0.00 85 1014.7
20260507020553 6 176 0.0 0.0 0.00 0.00 0.00 85 1014.8
20260507020052 6 176 0.0 0.0 0.00 0.00 0.00 85 1014.8
20260507015552 6 176 0.0 0.0 0.00 0.00 0.00 85 1014.6
20260507015052 6 176 0.0 0.0 0.00 0.00 0.00 85 1014.8
20260507014553 6 176 0.0 4.8 0.00 0.00 0.00 85 1014.9
20260507014052 6 177 0.0 4.8 0.00 0.00 0.00 85 1014.8
20260507013554 6 156 0.0 0.0 0.00 0.00 0.00 85 1014.8
20260507013052 6 156 0.0 0.0 0.00 0.00 0.00 84 1014.9
20260507012550 6 156 0.0 0.0 0.00 0.00 0.00 84 1014.8
20260507012048 6 156 0.0 0.0 0.00 0.00 0.00 84 1014.8
20260507011546 6 156 0.0 0.0 0.00 0.00 0.00 84 1014.8
20260507011045 6 156 0.0 1.6 0.00 0.00 0.00 84 1014.8
20260507010542 6 155 0.0 1.6 0.00 0.00 0.00 84 1014.9
20260507010040 6 179 0.0 0.0 0.00 0.00 0.00 84 1014.8